Weather in Kongsberg

Norway     59°40′00″N   9°39′01″E
temp.,
°C
wind,
m/s
gust,
m/s
humid.,
%
clouds,
%
prec.,
mm/h
press.,
hPa
HPBL,
m
14 april, wed
wed1423:00−3w11855 0.0 102514
02:00−3w118453 0.0 102622
05:00−2wnw11685 0.0 102632
08:000wnw11565 0.0 1027173
11:00+5nnw11416 0.0 1028733
14:00+7nne22375 0.0 10281354
17:00+7ne223967 0.0 10291786
20:00+4nne25643 0.0 1031156
15 april, thu
thu1523:00+1nnw22793 0.0 103329
02:000nw11825 0.0 103422
05:00−1nnw22805 0.0 103538
08:00+1nnw23682 0.0 1036182
11:00+6nne22504 0.0 1036845
14:00+8ne224227 0.0 10351452
17:00+8nne22427 0.0 10341512
20:00+5nne11586 0.0 103423
16 april, fri
fri1623:00+2nnw22763 0.0 103628
02:00+1nw22822 0.0 103629
05:000nnw22805 0.0 103642
08:00+2n23692 0.0 1036196
11:00+6nne235344 0.0 1035938
14:00+8nne234548 0.0 10341406
17:00+9nne334274 0.0 10321755
20:00+7nne366465 0.0 1033258
17 april, sat
sat1723:00+3nnw237978 0.0 103465
02:00+3nnw247897 0.0 1034101
05:00+3n2378100 0.0 103489
08:00+4n127699 0.0 1034158
11:00+6ne2271100 0.0 1033830
14:00+8nne2262100 0.1 10321111
17:00+9nne1152100 0.1 10311258
20:00+7n1264100 0.1 103049
18 april, sun
sun1823:00+5n1177100 0.0 103112
02:00+4nne1182100 0.0 103111
05:00+2nne118688 0.0 103010
08:00+4ene118070 0.0 1030131
11:00+8se1265100 0.0 1028892
14:00+9sse2361100 0.0 1027963
17:00+10sse2456100 0.0 1026921
20:00+9sse1266100 0.0 102556